This is the latest recevied weather packets stored in our database for station/object AK4NG. If no packets are shown the sender has not sent any weather packets the latest 10 day(s).
| Time | Temp. | Humidity | Pressure | Rain* | Wind** | Luminosity | Snow |
|---|---|---|---|---|---|---|---|
| 1777960551 | 13.89° C | 76% | 1015.9 hPa | 0 mm | - | 0 W/m² | - |
| 1777960248 | 14.44° C | 75% | 1015.8 hPa | 0 mm | - | 0 W/m² | - |
| 1777959945 | 14.44° C | 76% | 1015.9 hPa | 0 mm | - | 0 W/m² | - |
| 1777959644 | 14.44° C | 75% | 1015.8 hPa | 0 mm | - | 0 W/m² | - |
| 1777959340 | 14.44° C | 73% | 1015.8 hPa | 0 mm | - | 0 W/m² | - |
| 1777959037 | 14.44° C | 74% | 1015.8 hPa | 0 mm | - | 0 W/m² | - |
| 1777958734 | 15° C | 73% | 1015.7 hPa | 0 mm | - | 0 W/m² | - |
| 1777958432 | 15° C | 72% | 1015.8 hPa | 0 mm | - | 0 W/m² | - |
| 1777958128 | 15° C | 71% | 1015.8 hPa | 0 mm | - | 0 W/m² | - |
| 1777957826 | 15° C | 73% | 1016 hPa | 0 mm | - | 0 W/m² | - |
| 1777957524 | 15° C | 70% | 1015.9 hPa | 0 mm | - | 0 W/m² | - |
| 1777957222 | 15° C | 72% | 1016 hPa | 0 mm | - | 0 W/m² | - |
| 1777956918 | 15° C | 73% | 1015.9 hPa | 0 mm | - | 0 W/m² | - |
| 1777956615 | 15° C | 72% | 1016 hPa | 0 mm | - | 0 W/m² | - |
| 1777956313 | 15° C | 72% | 1015.9 hPa | 0 mm | - | 0 W/m² | - |
| 1777956009 | 15° C | 70% | 1015.7 hPa | 0 mm | - | 0 W/m² | - |
| 1777955704 | 15° C | 69% | 1016 hPa | 0 mm | - | 0 W/m² | - |
| 1777955402 | 15.56° C | 71% | 1016 hPa | 0 mm | - | 0 W/m² | - |
| 1777955097 | 15.56° C | 68% | 1016.1 hPa | 0 mm | - | 0 W/m² | - |
| 1777954795 | 15.56° C | 67% | 1015.8 hPa | 0 mm | - | 0 W/m² | - |
| 1777954492 | 15.56° C | 67% | 1015.7 hPa | 0 mm | - | 0 W/m² | - |
| 1777954189 | 15.56° C | 68% | 1015.8 hPa | 0 mm | - | 0 W/m² | - |
| 1777953886 | 15.56° C | 67% | 1015.6 hPa | 0 mm | - | 0 W/m² | - |
| 1777953583 | 16.11° C | 67% | 1016 hPa | 0 mm | - | 0 W/m² | - |
| 1777953279 | 16.11° C | 66% | 1015.9 hPa | 0 mm | - | 0 W/m² | - |
* Rain latest hour (hover to see other rain measurements)
** Current wind speed in m/s (hover to see current wind gust speed)